Latest Weather Observations for Jimna

IDQ60801

Issued at 11:05 pm EST Thursday 18 September 2014 (issued every 30 minutes, with the page automatically refreshed every 10 minutes)

About weather observations | Map of weather stations | Latest weather observations for QLD | Other Formats
Station Details ID: 040651 Name: JIMNA FORESTRY Lat: -26.66 Lon: 152.46 Height: 523.0 m
Data from the previous 72 hours. | See also: Recent months at Jimna
Date/Time
EST
Temp
°C
App
Temp
°C
Dew
Point
Rel
Hum
%
Delta-T
°C
Wind Press
QNH
hPa
Press
MSL
hPa
Rain
since 9 am
mm
Dir
 
Spd
km/h
Gust
km/h
Spd
kts
Gust
kts
18/11:00pm 7.0 - 3.4 78 1.6 - - - - - - - 0.0
18/10:30pm 7.7 - 3.7 76 1.8 - - - - - - - 0.0
18/10:00pm 8.3 - 3.2 70 2.2 - - - - - - - 0.0
18/09:30pm 9.0 - 3.2 67 2.6 - - - - - - - 0.0
18/09:00pm 9.6 - 2.9 63 3.0 - - - - - - - 0.0
18/08:30pm 10.6 - 2.4 57 3.6 - - - - - - - 0.0
18/08:00pm 11.7 - 1.9 51 4.3 - - - - - - - 0.0
18/07:30pm 12.7 - 1.1 45 5.1 - - - - - - - 0.0
18/07:00pm 13.3 - -2.6 33 6.4 - - - - - - - 0.0
18/06:30pm 14.2 - -2.7 31 6.9 - - - - - - - 0.0
18/06:00pm 15.6 - -3.8 26 7.8 - - - - - - - 0.0
18/05:30pm 16.9 - -3.2 25 8.3 - - - - - - - 0.0
18/05:00pm 18.8 - -1.6 25 8.9 - - - - - - - 0.0
18/04:30pm 20.8 - -6.7 15 11.0 - - - - - - - 0.0
18/04:00pm 21.8 - -5.9 15 11.4 - - - - - - - 0.0
18/03:30pm 22.3 - -4.7 16 11.4 - - - - - - - 0.0
18/03:00pm 22.3 - -5.6 15 11.6 - - - - - - - 0.0
18/02:30pm 22.3 - -2.4 19 10.9 - - - - - - - 0.0
18/02:00pm 22.1 - -4.1 17 11.2 - - - - - - - 0.0
18/01:30pm 21.6 - -2.3 20 10.5 - - - - - - - 0.0
18/01:00pm 21.5 - -1.7 21 10.3 - - - - - - - 0.0
18/12:30pm 21.5 - -2.4 20 10.5 - - - - - - - 0.0
18/12:00pm 21.4 - -2.5 20 10.5 - - - - - - - 0.0
18/11:30am 20.3 - -2.7 21 9.9 - - - - - - - 0.0
18/11:00am 20.5 - -2.5 21 10.0 - - - - - - - 0.0
18/10:30am 19.5 - 1.0 29 8.5 - - - - - - - 0.0
18/10:00am 18.8 - -1.1 26 8.8 - - - - - - - 0.0
18/09:30am 18.7 - -1.7 25 8.9 - - - - - - - 0.0
18/09:00am 17.8 - -1.9 26 8.5 - - - - - - - 0.0
18/08:30am 17.2 - -1.4 28 8.0 - - - - - - - 0.0
18/08:00am 16.5 - -0.2 32 7.3 - - - - - - - 0.0
18/07:30am 14.7 - 2.3 43 5.7 - - - - - - - 0.0
18/07:00am 11.6 - 3.1 56 3.8 - - - - - - - 0.0
18/06:30am 9.3 - 3.1 65 2.7 - - - - - - - 0.0
18/06:00am 8.6 - 2.4 65 2.7 - - - - - - - 0.0
18/05:30am 8.6 - 2.0 63 2.8 - - - - - - - 0.0
18/05:00am 8.6 - 2.2 64 2.8 - - - - - - - 0.0
18/04:30am 8.7 - 2.1 63 2.8 - - - - - - - 0.0
18/04:00am 8.8 - 2.2 63 2.9 - - - - - - - 0.0
18/03:30am 9.0 - 2.1 62 3.0 - - - - - - - 0.0
18/03:00am 9.2 - 2.1 61 3.1 - - - - - - - 0.0
18/02:30am 9.5 - 1.7 58 3.4 - - - - - - - 0.0
18/02:00am 10.3 - 1.4 54 3.8 - - - - - - - 0.0
18/01:30am 10.8 - 1.1 51 4.2 - - - - - - - 0.0
18/01:00am 11.2 - 1.2 50 4.3 - - - - - - - 0.0
18/12:30am 11.8 - 0.6 46 4.8 - - - - - - - 0.0
18/12:00am 12.6 - 0.4 43 5.2 - - - - - - - 0.0
 
Date/Time
EST
Temp
°C
App
Temp
°C
Dew
Point
Rel
Hum
%
Delta-T
°C
Wind Press
QNH
hPa
Press
MSL
hPa
Rain
since 9 am
mm
Dir
 
Spd
km/h
Gust
km/h
Spd
kts
Gust
kts
17/11:30pm 13.2 - 0.3 41 5.6 - - - - - - - 0.0
17/11:00pm 13.5 - -0.2 39 5.9 - - - - - - - 0.0
17/10:30pm 14.1 - -0.7 36 6.3 - - - - - - - 0.0
17/10:00pm 14.1 - -0.4 37 6.2 - - - - - - - 0.0
17/09:30pm 14.5 - -0.4 36 6.4 - - - - - - - 0.0
17/09:00pm 14.5 - -0.8 35 6.5 - - - - - - - 0.0
17/08:30pm 14.3 - -1.3 34 6.6 - - - - - - - 0.0
17/08:00pm 14.9 - -1.6 32 6.9 - - - - - - - 0.0
17/07:30pm 15.5 - -2.0 30 7.3 - - - - - - - 0.0
17/07:00pm 16.3 - -2.2 28 7.8 - - - - - - - 0.0
17/06:30pm 18.0 - -1.8 26 8.5 - - - - - - - 0.0
17/06:00pm 21.3 - -5.5 16 11.0 - - - - - - - 0.0
17/05:30pm 22.6 - -6.2 14 11.9 - - - - - - - 0.0
17/05:00pm 23.6 - -5.4 14 12.2 - - - - - - - 0.0
17/04:30pm 24.2 - -5.0 14 12.5 - - - - - - - 0.0
17/04:00pm 24.9 - -4.4 14 12.7 - - - - - - - 0.0
17/03:30pm 25.2 - -3.2 15 12.7 - - - - - - - 0.0
17/03:00pm 25.6 - -2.9 15 12.8 - - - - - - - 0.0
17/02:30pm 25.2 - -3.2 15 12.7 - - - - - - - 0.0
17/02:00pm 25.3 - -1.5 17 12.3 - - - - - - - 0.0
17/01:30pm 25.1 - -0.1 19 11.9 - - - - - - - 0.0
17/01:00pm 25.3 - 2.1 22 11.4 - - - - - - - 0.0
17/12:30pm 25.0 - 3.6 25 10.8 - - - - - - - 0.0
17/12:00pm 24.0 - 2.2 24 10.7 - - - - - - - 0.0
17/11:30am 24.0 - 2.2 24 10.7 - - - - - - - 0.0
17/11:00am 23.5 - 3.4 27 10.0 - - - - - - - 0.0
17/10:30am 23.2 - 6.0 33 9.0 - - - - - - - 0.0
17/10:00am 21.1 - 3.3 31 8.7 - - - - - - - 0.0
17/09:30am 20.9 - 3.6 32 8.5 - - - - - - - 0.0
17/09:00am 19.9 - 2.7 32 8.2 - - - - - - - 0.2
17/08:30am 18.8 - 7.9 49 5.7 - - - - - - - 0.2
17/08:00am 17.1 - 9.3 60 4.2 - - - - - - - 0.2
17/07:30am 13.8 - 10.6 81 1.7 - - - - - - - 0.2
17/07:00am 10.6 - 8.7 88 1.0 - - - - - - - 0.2
17/06:30am 8.1 - 7.0 93 0.5 - - - - - - - 0.2
17/06:00am 7.3 - 5.9 91 0.7 - - - - - - - 0.2
17/05:30am 7.4 - 6.0 91 0.7 - - - - - - - 0.2
17/05:00am 7.9 - 6.5 91 0.7 - - - - - - - 0.2
17/04:30am 8.0 - 6.5 90 0.7 - - - - - - - 0.2
17/04:00am 8.4 - 6.7 89 0.8 - - - - - - - 0.2
17/03:30am 8.8 - 6.9 88 0.9 - - - - - - - 0.2
17/03:00am 9.4 - 7.5 88 0.9 - - - - - - - 0.2
17/02:30am 9.8 - 7.6 86 1.1 - - - - - - - 0.2
17/02:00am 10.6 - 7.8 83 1.4 - - - - - - - 0.2
17/01:30am 11.2 - 8.2 82 1.5 - - - - - - - 0.2
17/01:00am 11.9 - 8.4 79 1.8 - - - - - - - 0.2
17/12:30am 12.7 - 8.6 76 2.1 - - - - - - - 0.2
17/12:00am 13.2 - 8.9 75 2.2 - - - - - - - 0.2
 
Date/Time
EST
Temp
°C
App
Temp
°C
Dew
Point
Rel
Hum
%
Delta-T
°C
Wind Press
QNH
hPa
Press
MSL
hPa
Rain
since 9 am
mm
Dir
 
Spd
km/h
Gust
km/h
Spd
kts
Gust
kts
16/11:30pm 14.0 - 9.0 72 2.6 - - - - - - - 0.2
16/11:00pm 14.3 - 9.3 72 2.6 - - - - - - - 0.2
16/10:30pm 14.7 - 9.5 71 2.8 - - - - - - - 0.2
16/10:00pm 15.0 - 10.0 72 2.7 - - - - - - - 0.2
16/09:30pm 15.2 - 10.4 73 2.6 - - - - - - - 0.2
16/09:00pm 15.9 - 11.3 74 2.5 - - - - - - - 0.2
16/08:30pm 15.2 - 11.6 79 2.0 - - - - - - - 0.2
16/08:00pm 14.9 - 11.1 78 2.1 - - - - - - - 0.2
16/07:30pm 15.3 - 11.5 78 2.1 - - - - - - - 0.2
16/07:00pm 16.1 - 11.1 72 2.8 - - - - - - - 0.2
16/06:30pm 16.8 - 10.6 67 3.4 - - - - - - - 0.2
16/06:00pm 21.0 - 5.4 36 7.9 - - - - - - - 0.0
16/05:30pm 21.8 - 5.7 35 8.3 - - - - - - - 0.0
16/05:00pm 23.2 - 3.7 28 9.7 - - - - - - - 0.0
16/04:30pm 24.1 - 4.0 27 10.2 - - - - - - - 0.0
16/04:00pm 25.0 - 7.6 33 9.4 - - - - - - - 0.0
16/03:30pm 24.8 - 6.5 31 9.7 - - - - - - - 0.0
16/03:00pm 25.4 - 5.1 27 10.5 - - - - - - - 0.0
16/02:30pm 25.6 - 3.5 24 11.2 - - - - - - - 0.0
16/02:00pm 24.7 - 4.5 27 10.3 - - - - - - - 0.0
16/01:30pm 24.8 - 5.6 29 10.0 - - - - - - - 0.0
16/01:00pm 25.6 - 5.2 27 10.6 - - - - - - - 0.0
16/12:30pm 25.2 - 7.3 32 9.7 - - - - - - - 0.0
16/12:00pm 24.9 - 6.6 31 9.7 - - - - - - - 0.0
16/11:30am 24.3 - 5.6 30 9.7 - - - - - - - 0.0
16/11:00am 23.7 - 6.5 33 9.1 - - - - - - - 0.0
16/10:30am 23.1 - 6.4 34 8.8 - - - - - - - 0.0
16/10:00am 22.4 - 5.8 34 8.6 - - - - - - - 0.0
16/09:30am 21.5 - 6.2 37 7.9 - - - - - - - 0.0
16/09:00am 20.7 - 8.4 45 6.6 - - - - - - - 0.0
16/08:30am 19.2 - 8.8 51 5.6 - - - - - - - 0.0
16/08:00am 18.0 - 10.1 60 4.3 - - - - - - - 0.0
16/07:30am 15.8 - 10.8 72 2.7 - - - - - - - 0.0
16/07:00am 12.1 - 10.7 91 0.7 - - - - - - - 0.0
16/06:30am 9.8 - 8.7 93 0.6 - - - - - - - 0.0
16/06:00am 9.1 - 8.0 93 0.5 - - - - - - - 0.0
16/05:30am 8.8 - 7.6 92 0.6 - - - - - - - 0.0
16/05:00am 9.0 - 7.6 91 0.7 - - - - - - - 0.0
16/04:30am 9.4 - 8.2 92 0.6 - - - - - - - 0.0
16/04:00am 9.6 - 8.2 91 0.7 - - - - - - - 0.0
16/03:30am 10.0 - 8.6 91 0.7 - - - - - - - 0.0
16/03:00am 10.2 - 8.8 91 0.7 - - - - - - - 0.0
16/02:30am 10.8 - 9.4 91 0.7 - - - - - - - 0.0
16/02:00am 11.3 - 9.9 91 0.7 - - - - - - - 0.0
16/01:30am 11.5 - 9.9 90 0.8 - - - - - - - 0.0
16/01:00am 11.8 - 10.2 90 0.8 - - - - - - - 0.0
16/12:30am 12.1 - 10.3 89 1.0 - - - - - - - 0.0
16/12:00am 12.7 - 10.9 89 1.0 - - - - - - - 0.0
 
Date/Time
EST
Temp
°C
App
Temp
°C
Dew
Point
Rel
Hum
%
Delta-T
°C
Wind Press
QNH
hPa
Press
MSL
hPa
Rain
since 9 am
mm
Dir
 
Spd
km/h
Gust
km/h
Spd
kts
Gust
kts
15/11:30pm 12.5 - 10.6 88 1.0 - - - - - - - 0.0

Other Formats:

Comma delimited format used in spreadsheet applications
http://www.bom.gov.au/fwo/IDQ60801/IDQ60801.94557.axf

JavaScript Object Notation format (JSON) in row-major order
http://www.bom.gov.au/fwo/IDQ60801/IDQ60801.94557.json